Voltar ao catálogo

STARLINK-30460

AtivoComunicaçõesVLEO
NORAD 57870·PAYLOAD·🇺🇸 United States

Lançado Sep 16, 2023 de Cape Canaveral Space Force Station

Loading…

Próximas Passagens (próximas 24 horas)

TLE

AtualizadoSource: CelesTrak SupGP

Época: Sep 14, 2026, 22:20 UTC

1 57870C 23144G   26257.93104167  .00008724  00000+0  31588-3 0  2579
2 57870  43.0027 296.5061 0001541 300.3318 252.6237 15.27583382    15

Acompanhe STARLINK-30460 em tempo real com AllMySat

Download on the App Store